Location: Carnières
(50.1682°N, 3.3474°E)
Time: 02:18:09
(UTC+00:00)

Cosmos 1953 - Pass Details

Date: 23 May 2024
Orbit: 510 x 531 km, 82.5° (Epoch: 16 June)

Event Time Altitude Azimuth Distance (km) Brightness Sun altitude
Rises 00:57:03 0° 351° (N) 2,689 7.0 -17.3°
Reaches altitude 10° 00:59:13 10° 353° (N) 1,791 5.9 -17.2°
Maximum altitude 01:03:10 75° 79° (E) 554 2.3 -17.0°
Enters shadow 01:05:01 29° 160° (SSE) 978 3.2 -16.9°
